When you browse on this site, cookies collect data to enhance your experience and personalize the content and advertising you see.
Visit our Privacy Policy to learn more. By continuing to use the site, you agree to this use of cookies and data.
  • In Latvia
  • List of Countries
  • For 7 days
  • Water Temperature
  • Weather Map
  • Weather Widgets
  • user-avatar
    Login

    Hourly Weather Satif

    Today, 6 June, Saturday

    Time Temperature Precipitation Wind Pressure Humidity
    00:00 +16°C° 0 mm 1 mps 671 mmHg 66%
    01:00 +15°C° 0 mm 1 mps 671 mmHg 67%
    02:00 +15°C° 0 mm 1 mps 670 mmHg 69%
    03:00 +14°C° 0 mm 1 mps 670 mmHg 71%
    04:00 +15°C° 0 mm 1 mps 670 mmHg 66%
    05:00 +16°C° 0 mm 1 mps 671 mmHg 62%
    06:00 +18°C° 0 mm 1 mps 671 mmHg 57%
    07:00 +17°C° 0 mm 0 mps 672 mmHg 50%
    08:00 +19°C° 0 mm 0 mps 672 mmHg 42%
    09:00 +20°C° 0 mm 0 mps 672 mmHg 35%
    10:00 +24°C° 0 mm 1 mps 673 mmHg 31%
    11:00 +25°C° 0 mm 2 mps 673 mmHg 26%
    12:00 +27°C° 0 mm 2 mps 673 mmHg 22%
    13:00 +27°C° 0 mm 4 mps 673 mmHg 22%
    14:00 +28°C° 0 mm 5 mps 673 mmHg 21%
    15:00 +28°C° 0 mm 6 mps 672 mmHg 20%
    16:00 +28°C° 0 mm 5 mps 672 mmHg 22%
    17:00 +27°C° 0 mm 4 mps 672 mmHg 24%
    18:00 +27°C° 0 mm 3 mps 671 mmHg 25%
    19:00 +26°C° 0 mm 3 mps 671 mmHg 26%
    20:00 +25°C° 0 mm 3 mps 671 mmHg 27%
    21:00 +24°C° 0 mm 2 mps 671 mmHg 28%
    22:00 +23°C° 0 mm 2 mps 670 mmHg 28%
    23:00 +23°C° 0 mm 2 mps 669 mmHg 29%

    Tomorrow, 7 June, Sunday

    Time Temperature Precipitation Wind Pressure Humidity
    00:00 +23°C° 0 mm 1 mps 669 mmHg 29%
    01:00 +22°C° 0.2 mm 1 mps 669 mmHg 33%
    02:00 +22°C° 0.2 mm 1 mps 669 mmHg 36%
    03:00 +21°C° 0.2 mm 1 mps 668 mmHg 40%
    04:00 +22°C° 0.3 mm 1 mps 669 mmHg 40%
    05:00 +22°C° 0.3 mm 1 mps 669 mmHg 40%
    06:00 +22°C° 0.3 mm 1 mps 669 mmHg 40%
    07:00 +23°C° 0.2 mm 1 mps 670 mmHg 39%
    08:00 +24°C° 0.2 mm 1 mps 670 mmHg 38%
    09:00 +25°C° 0.2 mm 1 mps 670 mmHg 37%
    10:00 +26°C° 0 mm 1 mps 671 mmHg 36%
    11:00 +26°C° 0 mm 1 mps 671 mmHg 35%
    12:00 +27°C° 0 mm 2 mps 671 mmHg 34%
    13:00 +27°C° 0 mm 3 mps 670 mmHg 35%
    14:00 +26°C° 0 mm 4 mps 670 mmHg 37%
    15:00 +26°C° 0 mm 6 mps 670 mmHg 39%
    16:00 +25°C° 0 mm 5 mps 670 mmHg 43%
    17:00 +23°C° 0 mm 4 mps 669 mmHg 47%
    18:00 +21°C° 0 mm 4 mps 669 mmHg 51%
    19:00 +21°C° 0 mm 3 mps 670 mmHg 54%
    20:00 +20°C° 0 mm 2 mps 670 mmHg 57%
    21:00 +19°C° 0 mm 2 mps 670 mmHg 61%
    22:00 +19°C° 0 mm 2 mps 670 mmHg 62%
    23:00 +18°C° 0 mm 2 mps 670 mmHg 63%

    Day after tomorrow, 8 June, Monday

    Time Temperature Precipitation Wind Pressure Humidity
    00:00 +18°C° 0 mm 2 mps 669 mmHg 64%
    01:00 +17°C° 0 mm 2 mps 669 mmHg 66%
    02:00 +18°C° 0 mm 1 mps 668 mmHg 67%
    03:00 +16°C° 0 mm 1 mps 668 mmHg 69%
    04:00 +18°C° 0 mm 1 mps 668 mmHg 65%
    05:00 +19°C° 0 mm 1 mps 668 mmHg 62%
    06:00 +19°C° 0 mm 1 mps 669 mmHg 59%
    07:00 +21°C° 0 mm 1 mps 669 mmHg 52%
    08:00 +21°C° 0 mm 2 mps 670 mmHg 45%
    09:00 +22°C° 0 mm 3 mps 670 mmHg 38%
    10:00 +24°C° 0.1 mm 3 mps 670 mmHg 36%
    11:00 +25°C° 0.1 mm 4 mps 670 mmHg 34%
    12:00 +26°C° 0.1 mm 5 mps 670 mmHg 31%
    13:00 +26°C° 0.1 mm 5 mps 670 mmHg 33%
    14:00 +26°C° 0.1 mm 5 mps 670 mmHg 34%
    15:00 +26°C° 0.1 mm 5 mps 670 mmHg 35%
    16:00 +23°C° 0.5 mm 5 mps 670 mmHg 44%
    17:00 +21°C° 0.5 mm 4 mps 670 mmHg 52%
    18:00 +20°C° 0.5 mm 4 mps 669 mmHg 60%
    19:00 +19°C° 0.7 mm 3 mps 669 mmHg 66%
    20:00 +18°C° 0.7 mm 2 mps 670 mmHg 71%
    21:00 +16°C° 0.7 mm 1 mps 670 mmHg 77%
    22:00 +16°C° 0 mm 1 mps 670 mmHg 78%
    23:00 +16°C° 0 mm 1 mps 670 mmHg 79%

    9 June, Tuesday

    Time Temperature Precipitation Wind Pressure Humidity
    00:00 +16°C° 0 mm 1 mps 670 mmHg 80%
    01:00 +15°C° 0 mm 1 mps 669 mmHg 81%
    02:00 +14°C° 0 mm 0 mps 669 mmHg 83%
    03:00 +14°C° 0 mm 0 mps 669 mmHg 85%
    04:00 +14°C° 0 mm 0 mps 669 mmHg 83%
    05:00 +16°C° 0 mm 1 mps 669 mmHg 80%
    06:00 +16°C° 0 mm 1 mps 670 mmHg 78%
    07:00 +18°C° 0 mm 1 mps 670 mmHg 71%
    08:00 +19°C° 0 mm 1 mps 670 mmHg 64%
    09:00 +19°C° 0 mm 2 mps 671 mmHg 57%
    10:00 +20°C° 0 mm 2 mps 671 mmHg 53%
    11:00 +21°C° 0 mm 2 mps 671 mmHg 48%
    12:00 +23°C° 0 mm 2 mps 672 mmHg 43%
    13:00 +22°C° 0.1 mm 3 mps 672 mmHg 45%
    14:00 +22°C° 0.1 mm 4 mps 671 mmHg 47%
    15:00 +22°C° 0.1 mm 5 mps 671 mmHg 48%
    16:00 +21°C° 0.1 mm 5 mps 671 mmHg 54%
    17:00 +20°C° 0.1 mm 4 mps 671 mmHg 59%
    18:00 +18°C° 0.1 mm 4 mps 671 mmHg 65%
    19:00 +17°C° 0.1 mm 3 mps 672 mmHg 68%
    20:00 +17°C° 0.1 mm 2 mps 672 mmHg 71%
    21:00 +16°C° 0.1 mm 1 mps 672 mmHg 75%
    22:00 +15°C° 0 mm 2 mps 672 mmHg 75%
    23:00 +15°C° 0 mm 2 mps 672 mmHg 76%

    10 June, Wednesday

    Time Temperature Precipitation Wind Pressure Humidity
    00:00 +15°C° 0 mm 2 mps 672 mmHg 77%
    01:00 +15°C° 0 mm 1 mps 671 mmHg 79%
    02:00 +14°C° 0 mm 1 mps 671 mmHg 81%
    03:00 +14°C° 0 mm 1 mps 671 mmHg 83%
    04:00 +14°C° 0 mm 1 mps 671 mmHg 80%
    05:00 +15°C° 0 mm 1 mps 671 mmHg 77%
    06:00 +15°C° 0 mm 1 mps 672 mmHg 74%
    07:00 +18°C° 0 mm 1 mps 672 mmHg 66%
    08:00 +19°C° 0 mm 1 mps 673 mmHg 58%
    09:00 +20°C° 0 mm 1 mps 673 mmHg 50%
    10:00 +21°C° 0 mm 2 mps 673 mmHg 47%
    11:00 +22°C° 0 mm 3 mps 674 mmHg 44%
    12:00 +24°C° 0 mm 3 mps 674 mmHg 40%
    13:00 +22°C° 0.2 mm 4 mps 673 mmHg 43%
    14:00 +22°C° 0.2 mm 4 mps 673 mmHg 46%
    15:00 +22°C° 0.2 mm 4 mps 673 mmHg 48%
    16:00 +21°C° 0.3 mm 4 mps 673 mmHg 53%
    17:00 +20°C° 0.3 mm 3 mps 672 mmHg 57%
    18:00 +19°C° 0.3 mm 3 mps 672 mmHg 61%
    19:00 +18°C° 0 mm 2 mps 672 mmHg 66%
    20:00 +17°C° 0 mm 2 mps 672 mmHg 71%
    21:00 +16°C° 0 mm 2 mps 673 mmHg 76%
    22:00 +16°C° 0 mm 2 mps 672 mmHg 78%
    23:00 +16°C° 0 mm 2 mps 672 mmHg 80%

    11 June, Thursday

    Time Temperature Precipitation Wind Pressure Humidity
    00:00 +15°C° 0 mm 1 mps 672 mmHg 82%
    01:00 +15°C° 0 mm 1 mps 671 mmHg 83%
    02:00 +15°C° 0 mm 1 mps 671 mmHg 85%
    03:00 +13°C° 0 mm 0 mps 671 mmHg 87%
    04:00 +14°C° 0 mm 0 mps 671 mmHg 84%
    05:00 +14°C° 0 mm 0 mps 671 mmHg 81%
    06:00 +15°C° 0 mm 0 mps 672 mmHg 78%
    07:00 +18°C° 0 mm 1 mps 672 mmHg 69%
    08:00 +18°C° 0 mm 2 mps 672 mmHg 60%
    09:00 +20°C° 0 mm 2 mps 673 mmHg 51%
    10:00 +21°C° 0 mm 3 mps 673 mmHg 45%
    11:00 +22°C° 0 mm 4 mps 673 mmHg 39%
    12:00 +23°C° 0 mm 4 mps 673 mmHg 33%
    13:00 +23°C° 0 mm 4 mps 673 mmHg 32%
    14:00 +25°C° 0 mm 4 mps 672 mmHg 32%
    15:00 +25°C° 0 mm 4 mps 672 mmHg 31%
    16:00 +22°C° 0 mm 4 mps 672 mmHg 37%
    17:00 +21°C° 0 mm 4 mps 671 mmHg 43%
    18:00 +20°C° 0 mm 4 mps 671 mmHg 49%
    19:00 +19°C° 0 mm 3 mps 671 mmHg 52%
    20:00 +18°C° 0 mm 2 mps 671 mmHg 54%
    21:00 +18°C° 0 mm 1 mps 671 mmHg 57%
    22:00 +18°C° 0 mm 1 mps 671 mmHg 59%
    23:00 +16°C° 0 mm 1 mps 670 mmHg 60%
    Show more